This demonstration page uses our WeatherBlox Daily Observations layout. Learn more.

Left ArrowRight Arrow

39.08367, -84.50855

Hourly Observations for March 14, 2018

Temp ( °F °C ) Dew Point ( °F °C ) Humidity (%) Winds ( mph kmh ) Pressure ( in mb ) Visibility ( mi km ) Precip ( " mm )
12:53 am 00:53 Clear 28 -2.2 20 -6.7 72 72 NW 6 9 30.12 1020 10 16.0934 0 0
1:53 am 01:53 Clear 27 -2.8 17 -8.3 66 66 W 6 9 30.12 1020 10 16.0934 0 0
2:53 am 02:53 Clear 26 -3.3 17 -8.3 69 69 WNW 8 13 30.12 1020 10 16.0934 0 0
3:53 am 03:53 Mostly Clear 26 -3.3 18 -7.8 71 71 WNW 8 13 30.12 1020 10 16.0934 0 0
4:53 am 04:53 Mostly Cloudy 25 -3.9 18 -7.8 75 75 NW 6 9 30.11 1020 10 16.0934 0 0
5:53 am 05:53 Mostly Cloudy 26 -3.3 19 -7.2 75 75 WNW 6 9 30.12 1020 10 16.0934 0 0
6:53 am 06:53 Cloudy 26 -3.3 20 -6.7 78 78 VRB 5 7 30.12 1020 10 16.0934 0 0
7:53 am 07:53 Cloudy 27 -2.8 20 -6.7 75 75 WNW 7 11 30.14 1021 10 16.0934 0 0
8:53 am 08:53 Cloudy 28 -2.2 21 -6.1 75 75 VRB 5 7 30.15 1021 10 16.0934 0 0
9:53 am 09:53 Cloudy with Light Snow 28 -2.2 23 -5 81 81 W 9 15 30.16 1021 4 6.43736 0 0.0254
10:00 am 10:00 Cloudy with Light Snow 28 -2.2 23 -5 81 81 W 13 20 30.18 1022 2 3.21868 0 0.0254
10:28 am 10:28 Cloudy with Light Snow 28 -2.2 24 -4.4 85 85 WNW 7 11 30.18 1022 4 6.43736 0 0.0254
10:53 am 10:53 Cloudy 30 -1.1 23 -5 75 75 NW 9 15 30.17 1022 10 16.0934 0 0.0254
11:45 am 11:45 Cloudy with Light Snow 30 -1.1 20 -6.7 66 66 W 10 17 30.18 1022 9 14.48406 0 0.0254
11:53 am 11:53 Cloudy with Light Snow 30 -1.1 20 -6.7 66 66 W 10 17 30.17 1022 8 12.87472 0 0.0254
12:53 pm 12:53 Cloudy 33 0.6 20 -6.7 58 58 WNW 9 15 30.15 1021 10 16.0934 0 0.0254
1:53 pm 13:53 Mostly Cloudy 36 2.2 20 -6.7 52 52 W 10 17 30.13 1020 10 16.0934 0 0
2:53 pm 14:53 Partly Cloudy 39 3.9 19 -7.2 45 45 W 12 19 30.09 1019 10 16.0934 0 0
3:53 pm 15:53 Sunny 41 5 18 -7.8 39 39 W 9 15 30.06 1018 10 16.0934 0 0
4:53 pm 16:53 Mostly Sunny 41 5 17 -8.3 38 38 W 16 26 30.05 1018 10 16.0934 0 0
5:53 pm 17:53 Sunny 41 5 15 -9.4 35 35 WSW 13 20 30.03 1017 10 16.0934 0 0
6:53 pm 18:53 Sunny 40 4.4 15 -9.4 36 36 WSW 12 19 30.01 1016 10 16.0934 0 0
7:53 pm 19:53 Clear 37 2.8 16 -8.9 42 42 WSW 12 19 30 1016 10 16.0934 0 0
8:53 pm 20:53 Clear 34 1.1 17 -8.3 50 50 SW 7 11 30 1016 10 16.0934 0 0
9:53 pm 21:53 Clear 31 -0.6 18 -7.8 59 59 SSW 8 13 30 1016 10 16.0934 0 0
10:53 pm 22:53 Clear 30 -1.1 19 -7.2 64 64 SSW 8 13 30 1016 10 16.0934 0 0
11:53 pm 23:53 Clear 31 -0.6 19 -7.2 61 61 SSW 8 13 29.98 1015 10 16.0934 0 0

Powered by AerisWeather